Regional Weather Roundup
Issued by NWS

Home | Current Version | Previous Version | Text Only | Print | Product List | Glossary On
Versions: 1 2 3 4 5 6 7 8 9 10 11 12 13 14 15 16 17 18 19 20 21 22 23 24 25 26 27 28 29 30 31 32 33 34 35 36 37 38 39 40 41 42 43 44 45 46 47 48 49 50
340
ASUS45 KTFX 290410
RWRMT
MONTANA REGIONAL WEATHER ROUNDUP
NATIONAL WEATHER SERVICE GREAT FALLS MT
1000 PM MDT FRI APR 28 2017

NOTE: "FAIR" INDICATES FEW OR NO CLOUDS BELOW 12000 FEET WITH NO
SIGNIFICANT WEATHER AND/OR OBSTRUCTIONS TO VISIBILITY.

MTZ001>007-043-290500-
WEST OF THE DIVIDE

CITY           SKY/WX    TMP DP  RH WIND       PRES   REMARKS
KALISPELL      MOCLDY    41  40  96 S7        30.18R
MISSOULA       PTCLDY    43  33  68 NW10      30.21R
BUTTE          CLOUDY    39  26  59 N7        30.15R
MULLAN PASS    SNOW      30  30 100 NW8G26    30.18R VSB 1/4 WCI  22
ANACONDA         N/A     37  25  60 CALM      30.16R
DEER LODGE       N/A     39  28  65 NW9       30.19R
EUREKA           N/A     45  41  87 S5        30.18R
HAMILTON         N/A     43  28  56 CALM      30.19R
LIBBY            N/A     45  39  81 S3        30.18R
PLAINS           N/A     46  31  56 CALM      30.20R
RONAN            N/A     41  36  82 CALM      30.22R
$$

MTZ008-052>055-290500-
SOUTHWEST MONTANA

CITY           SKY/WX    TMP DP  RH WIND       PRES   REMARKS
BOZEMAN        LGT RAIN  39  35  86 SE8       30.16R
DILLON         CLEAR     36  25  64 E7        30.12R WCI  30
W YELLOWSTONE  CLOUDY    32  23  69 N6        30.12R WCI  26
THREE FORKS      N/A     41  23  48 CALM      30.14R
TWIN BRIDGES     N/A     40  27  60 N13       30.10R
$$

MTZ009-010-012-014-046-048-049-054-290500-
EAST SLOPES AND CENTRAL MONTANA

CITY           SKY/WX    TMP DP  RH WIND       PRES   REMARKS
CUT BANK       CLOUDY    41  31  67 VRB3      30.14R
GREAT FALLS    CLEAR     35  32  88 SW3       30.17R
MALMSTROM AFB  CLEAR     33  32  94 SW7       30.18R WCI  27
HELENA         CLEAR     40  33  76 SW6       30.16R
AUGUSTA        MOCLDY    37  35  94 S5        30.16R
BOWMANS CRNR     N/A     35  32  91 S5        30.15R
CHOTEAU          N/A     41  34  75 S3        30.18R
FAIRFIELD        N/A     38  34  84 S7        30.15R
POWER            N/A     37  33  89 S6        30.16R WCI  32
RAYNESFORD       N/A     35  32  90 CALM      30.18R
ULM              N/A     36  35  94 CALM      30.17R
$$

MTZ011-013-016-021-045-047-050-051-290500-
NORTH CENTRAL MONTANA

CITY           SKY/WX    TMP DP  RH WIND       PRES   REMARKS
HAVRE          PTCLDY    36  29  75 S5        30.16R
LEWISTOWN      PTCLDY    34  32  92 S5        30.17R
N BAR RANCH    MIX PCPN  36  34  93 CALM      30.21R
CHINOOK          N/A     41  32  70 SW3       30.17R
DENTON           N/A     36  34  92 MISG      30.14R
FORT BENTON      N/A     45  34  65 MISG      30.18R
GEYSER           N/A     34  30  85 W7        30.17R WCI  28
GRASS RANGE      N/A     37  35  92 SW12      30.14R WCI  29
JUDITH GAP     MOCLDY    33  32  96 NE3       30.17R
STANFORD         N/A     34  31  90 CALM      30.17R
WINIFRED         N/A     36  35  93 S6        30.16R WCI  32
$$

MTZ017>020-022>027-061-062-290500-
NORTHEAST MONTANA

CITY           SKY/WX    TMP DP  RH WIND       PRES   REMARKS
GLASGOW        CLOUDY    44  33  65 N13       30.16R
JORDAN           N/A     48  36  63 NW10      30.16R
SIDNEY         CLEAR     40  24  53 SW3       30.16R
WOLF POINT     CLOUDY    43  26  51 CALM      30.13R
MALTA          CLOUDY    39  37  93 SW5       30.17
PLENTYWOOD       N/A     46  23  39 SW5       30.13R
POPLAR           N/A     46  25  42 S5        30.14R
SCOBEY           N/A     38  27  65 N1        30.12R
$$

MTZ028>42-056>058-290500-
SOUTHCENTRAL AND SOUTHEAST MONTANA

CITY           SKY/WX    TMP DP  RH WIND       PRES   REMARKS
BAKER          MOCLDY    39  28  64 CALM      30.18R
BILLINGS       CLOUDY    43  32  65 CALM      30.18R
LIVINGSTON     CLOUDY    37  34  89 CALM      30.16R
MILES CITY     PTCLDY    48  24  39 W3        30.17R
BIG TIMBER     CLOUDY    37  34  87 CALM      30.20R
EKALAKA          N/A     38  24  57 SE6       30.14R
LAUREL           N/A     40  30  67 CALM      30.15F
ROUNDUP          N/A     42  35  76 SW5       30.08R
$$

REGIONAL REPORTS...DAKOTAS

CITY           SKY/WX    TMP DP  RH WIND       PRES   REMARKS
WILLISTON      PTCLDY    46  24  42 SW5       30.15R
MINOT          CLEAR     45  20  36 S3        30.16R
DICKINSON      CLEAR     34  16  47 SE5       30.17R
BEACH            N/A     34  25  69 SE3       30.20R
TIOGA          CLOUDY    39  19  45 S10       30.16R
WATFORD CITY     N/A     41  23  48 CALM      30.16R
BISMARCK       CLEAR     43  20  39 NE3       30.19R HAZE
GRAND FORKS    CLEAR     38  28  67 NW6       30.16R
FARGO          CLOUDY    38  25  59 N6        30.16R
BUFFALO SD       N/A     42  27  55 SE8       30.13R
RAPID CITY     PTCLDY    36  26  67 NE7       30.18R WCI  30
$$

REGIONAL REPORTS...WYOMING/IDAHO/WASHINGTON

CITY           SKY/WX    TMP DP  RH WIND       PRES   REMARKS
GILLETTE       CLOUDY    32  30  92 W12       30.18R WCI  23
SHERIDAN       CLOUDY    34  31  88 CALM      30.19R
BUFFALO WY     CLOUDY    33  22  63 SW3       30.19R
CODY           CLOUDY    34  30  85 CALM      30.17R
YELLOWSTONE LA   N/A     27  18  69 VRB3      30.12R
IDAHO FALLS    CLEAR     38  29  70 N9        30.07R WCI  31
SALMON         PTCLDY    45  25  45 E3        30.13R
BOISE          CLEAR     50  29  44 NW17      30.13R
SPOKANE        MOCLDY    51  34  52 S7        30.17R
$$

REGIONAL REPORTS...ALBERTA

CITY           SKY/WX    TMP DP  RH WIND       PRES   REMARKS
EDMONTON       CLEAR     37  28  70 E2        30.10R
CALGARY        MOCLDY    41  32  70 W5        30.11R
LETHBRIDGE     MOCLDY    39  36  87 SW9       30.13R
MEDICINE HAT   CLEAR     37  28  70 W5        30.14R
CARDSTON         N/A     36  34  93 S2          N/A
MILK RIVER       N/A     39  32  75 SE2         N/A
$$

REGIONAL REPORTS...SASKATCHEWAN

CITY           SKY/WX    TMP DP  RH WIND       PRES   REMARKS
SWIFT CURRENT  PTCLDY    39  27  60 W3        30.12R
REGINA         CLOUDY    43  36  75 NW6       30.13R
SASKATOON      PTCLDY    37  28  70 S5        30.10R
VAL MARIE        N/A     41  34  75 CALM        N/A
ROCKGLEN         N/A     36  32  87 N6          N/A  WCI  31
ASSINIBOIA       N/A     39  34  81 S2          N/A
$$




USA.gov is the U.S. government's official web portal to all federal, state and local government web resources and services.